User: anonymous   Login
Location: Unspecified
(0.0000°N, 0.0000°E)
Time: 05:21:31
(UTC+01:00)
Language:

Cosmos 1782 Rocket - Orbit

View from above orbital plane
View from above orbital plane
View from above satellite
View from above satellite

Ground track
Ground track

The orbit data is extracted from the following two-line orbital elements,

1 16987U 86074B   14350.87864922  .00000756  00000-0  90859-4 0  5433
2 16987 082.5177 085.5933 0018785 033.4275 105.4891 14.82584379523121
Epoch (UTC): 16 December 2014 21:05:15
Eccentricity: 0.0018785
inclination: 82.5177°
perigee height: 608 km
apogee height: 634 km
right ascension of ascending node: 85.5933°
argument of perigee: 33.4275°
revolutions per day: 14.82584379
mean anomaly at epoch: 105.4891°
orbit number at epoch: 52312

The dashed part of the orbit path shows where the satellite is in the earth's shadow,  

DLR